START_TIME,STEP,MOV.,M15,t_acc.,M20,t_acc.
1979-07-27 03:00:43.190 ,1,0,0.,24.0,0.,24.0
1979-07-27 03:01:07.190 ,2,1,0.,24.0,0.,24.0
1979-07-27 03:01:31.190 ,2,0,0.,24.0,0.,24.0
1979-07-27 03:01:55.190 ,3,1,0.,24.0,0.,24.0
1979-07-27 03:02:19.190 ,3,0,0.,24.0,0.,24.0
1979-07-27 03:02:43.190 ,4,1,0.,24.0,0.,24.0
1979-07-27 03:03:07.190 ,4,0,0.,24.0,0.,24.0
1979-07-27 03:03:31.190 ,5,1,0.,24.0,0.,24.0
1979-07-27 03:03:55.190 ,5,0,0.,24.0,0.,24.0
1979-07-27 03:04:19.190 ,6,1,0.,24.0,0.,24.0
1979-07-27 03:04:43.190 ,6,0,0.,24.0,0.,24.0
1979-07-27 03:05:07.190 ,7,1,0.,24.0,0.,24.0
1979-07-27 03:05:31.190 ,7,0,0.,24.0,0.,24.0
1979-07-27 03:05:55.190 ,7,1,0.,24.0,0.,24.0
1979-07-27 03:06:19.190 ,7,0,0.,24.0,0.,24.0
1979-07-27 03:06:43.190 ,6,1,0.,24.0,0.,24.0
1979-07-27 03:07:07.190 ,6,0,0.,24.0,0.,24.0
1979-07-27 03:07:31.190 ,5,1,0.,24.0,0.,24.0
1979-07-27 03:07:55.190 ,5,0,0.,24.0,0.,24.0
1979-07-27 03:08:19.190 ,4,1,0.,24.0,0.,24.0
1979-07-27 03:08:43.190 ,4,0,0.,24.0,0.,24.0
1979-07-27 03:09:07.190 ,3,1,0.,24.0,0.,24.0
1979-07-27 03:09:31.190 ,3,0,0.,24.0,0.,24.0
1979-07-27 03:09:55.190 ,2,1,0.,24.0,0.,24.0
1979-07-27 03:10:19.190 ,2,0,0.,24.0,0.,24.0
1979-07-27 03:10:43.190 ,1,1,0.,24.0,0.,24.0
1979-07-27 03:11:07.190 ,1,0,0.,24.0,0.,24.0
1979-07-27 03:11:31.190 ,0,1,0.,24.0,0.,24.0
1979-07-27 03:11:55.190 ,0,0,0.,24.0,0.,24.0
1979-07-27 03:12:19.190 ,0,1,0.,24.0,0.,24.0
1979-07-27 03:12:43.190 ,0,0,0.,24.0,0.,24.0
1979-07-27 03:13:07.190 ,1,1,0.,24.0,0.,24.0
1979-07-27 03:13:31.190 ,1,0,0.,24.0,0.,24.0
1979-07-27 03:13:55.190 ,2,1,0.,24.0,0.,24.0
1979-07-27 03:14:19.190 ,2,0,0.,24.0,0.,24.0
1979-07-27 03:14:43.190 ,3,1,0.,24.0,0.,24.0
1979-07-27 03:15:07.190 ,3,0,0.,24.0,0.,24.0
1979-07-27 03:15:31.190 ,4,1,0.,24.0,0.,24.0
1979-07-27 03:15:55.190 ,4,0,0.,24.0,0.,24.0
1979-07-27 03:16:19.190 ,5,1,0.,24.0,0.,24.0
1979-07-27 03:16:43.190 ,5,0,0.,24.0,0.,24.0
1979-07-27 03:17:07.190 ,6,1,0.,24.0,0.,24.0
1979-07-27 03:17:31.190 ,6,0,0.,24.0,0.,24.0
1979-07-27 03:17:55.190 ,7,1,0.,24.0,0.,24.0
1979-07-27 03:18:19.190 ,7,0,0.,24.0,0.,24.0
1979-07-27 03:18:43.190 ,7,1,0.,24.0,0.,24.0
1979-07-27 03:19:07.190 ,7,0,0.,24.0,0.,24.0
1979-07-27 03:19:31.190 ,6,1,0.,24.0,0.,24.0
1979-07-27 03:19:55.190 ,6,0,0.,24.0,0.,24.0
1979-07-27 03:20:19.190 ,5,1,0.,24.0,0.,24.0
1979-07-27 03:20:43.190 ,5,0,0.,24.0,0.,24.0
1979-07-27 03:21:07.190 ,4,1,0.,24.0,0.,24.0
1979-07-27 03:21:31.190 ,4,0,0.,24.0,0.,24.0
1979-07-27 03:21:55.190 ,3,1,0.,24.0,0.,24.0
1979-07-27 03:22:19.190 ,3,0,0.,24.0,0.,24.0
1979-07-27 03:22:43.190 ,2,1,0.,24.0,0.,24.0
1979-07-27 03:23:07.190 ,2,0,0.,24.0,0.,24.0
1979-07-27 03:23:31.190 ,1,1,0.,24.0,0.,24.0
1979-07-27 03:23:55.190 ,1,0,0.,24.0,0.,24.0
1979-07-27 03:24:19.190 ,0,1,0.,24.0,0.,24.0
1979-07-27 03:24:43.190 ,0,0,0.,24.0,0.,24.0
1979-07-27 03:25:07.190 ,0,1,0.,24.0,0.,24.0
1979-07-27 03:25:31.190 ,0,0,0.,24.0,0.,24.0
1979-07-27 03:25:55.190 ,1,1,0.,24.0,0.,24.0
1979-07-27 03:26:19.190 ,1,0,0.,24.0,0.,24.0
1979-07-27 03:26:43.190 ,2,1,0.,24.0,0.,24.0
1979-07-27 03:27:07.190 ,2,0,0.,24.0,0.,24.0
1979-07-27 03:27:31.190 ,3,1,0.,24.0,0.,24.0
1979-07-27 03:27:55.190 ,3,0,0.,24.0,0.,24.0
1979-07-27 03:28:19.190 ,4,1,0.,24.0,0.,24.0
1979-07-27 03:28:43.190 ,4,0,0.,24.0,0.,24.0
1979-07-27 03:29:07.190 ,5,1,0.,24.0,0.,24.0
1979-07-27 03:29:31.190 ,5,0,0.,24.0,0.,24.0
1979-07-27 03:29:55.190 ,6,1,0.,24.0,0.,24.0
1979-07-27 03:30:19.190 ,6,0,0.,24.0,0.,24.0
1979-07-27 03:30:43.190 ,7,0,0.,24.0,0.,24.0
1979-07-27 03:31:07.190 ,7,0,0.,24.0,0.,24.0
1979-07-27 03:31:31.190 ,3,1,0.,24.0,0.,24.0
1979-07-27 03:31:55.190 ,0,1,0.,24.0,0.,24.0
1979-07-27 03:32:19.190 ,4,1,0.,24.0,0.,24.0
1979-07-27 03:32:43.190 ,7,1,0.,24.0,0.,24.0
1979-07-27 03:33:07.190 ,3,1,0.,24.0,0.,24.0
1979-07-27 03:33:31.190 ,0,1,0.,24.0,0.,24.0
1979-07-27 03:33:55.190 ,4,1,0.,24.0,0.,24.0
1979-07-27 03:34:19.190 ,7,1,0.,24.0,0.,24.0
1979-07-27 03:34:43.180 ,3,1,0.,24.0,0.,24.0
1979-07-27 03:35:07.180 ,0,1,0.,24.0,0.,24.0
1979-07-27 03:35:31.180 ,4,1,0.,24.0,0.,24.0
1979-07-27 03:35:55.180 ,7,1,0.,24.0,0.,24.0
1979-07-27 03:36:19.180 ,3,1,0.,24.0,0.,24.0
1979-07-27 03:36:43.180 ,0,1,0.,24.0,0.,24.0
1979-07-27 03:37:07.180 ,4,1,0.,24.0,0.,24.0
1979-07-27 03:37:31.180 ,7,1,0.,24.0,0.,24.0
1979-07-27 03:37:55.180 ,3,1,0.,24.0,0.,24.0
1979-07-27 03:38:19.180 ,0,1,0.,24.0,0.,24.0
1979-07-27 03:38:43.180 ,4,1,0.,24.0,0.,24.0
1979-07-27 03:39:07.180 ,7,1,0.,24.0,0.,24.0
1979-07-27 03:39:31.180 ,3,1,0.,24.0,0.,24.0
1979-07-27 03:39:55.180 ,0,1,0.,24.0,0.,24.0
1979-07-27 03:40:19.180 ,4,1,0.,24.0,0.,24.0
1979-07-27 03:40:43.180 ,7,1,0.,24.0,0.,24.0
1979-07-27 03:41:07.180 ,3,1,0.,24.0,0.,24.0
1979-07-27 03:41:31.180 ,0,1,0.,24.0,0.,24.0
1979-07-27 03:41:55.180 ,0,0,0.,24.0,0.,24.0
1979-07-27 03:42:19.180 ,0,0,0.,24.0,0.,24.0
1979-07-27 03:42:43.180 ,5,1,0.,24.0,0.,24.0
1979-07-27 03:43:07.180 ,5,0,0.,24.0,0.,24.0
1979-07-27 03:43:31.180 ,4,1,0.,24.0,0.,24.0
1979-07-27 03:43:55.180 ,4,0,0.,24.0,0.,24.0
1979-07-27 03:44:19.180 ,3,1,0.,24.0,0.,24.0
1979-07-27 03:44:43.180 ,3,0,0.,24.0,0.,24.0
1979-07-27 03:45:07.180 ,2,1,0.,24.0,0.,24.0
1979-07-27 03:45:31.180 ,2,0,0.,24.0,0.,24.0
1979-07-27 03:45:55.180 ,0,0,,0,,0
1979-07-27 03:46:19.180 ,0,0,0.,24.0,0.,24.0
1979-07-27 03:46:43.180 ,0,1,0.,24.0,0.,24.0
1979-07-27 03:47:07.180 ,0,0,0.,24.0,0.,24.0
1979-07-27 03:47:31.180 ,0,1,0.,24.0,0.,24.0
1979-07-27 03:47:55.180 ,0,0,0.,24.0,0.,24.0
1979-07-27 03:48:19.180 ,1,1,0.,24.0,0.,24.0
1979-07-27 03:48:43.180 ,1,0,0.,24.0,0.,24.0
1979-07-27 03:49:07.180 ,2,1,0.,24.0,0.,24.0
1979-07-27 03:49:31.180 ,2,0,0.,24.0,0.,24.0
1979-07-27 03:49:55.180 ,3,1,0.,24.0,0.,24.0
1979-07-27 03:50:19.180 ,3,0,0.,24.0,0.,24.0
1979-07-27 03:50:43.180 ,4,1,0.,24.0,0.,24.0
1979-07-27 03:51:07.180 ,4,0,0.,24.0,0.,24.0
1979-07-27 03:51:31.180 ,5,1,0.,24.0,0.,24.0
1979-07-27 03:51:55.180 ,5,0,0.,24.0,0.,24.0
1979-07-27 03:52:19.180 ,6,1,0.,24.0,0.,24.0
1979-07-27 03:52:43.180 ,6,0,0.,24.0,0.,24.0
1979-07-27 03:53:07.180 ,7,1,0.,24.0,0.,24.0
1979-07-27 03:53:31.180 ,7,0,0.,24.0,0.,24.0
1979-07-27 03:53:55.180 ,7,1,0.,24.0,0.,24.0
1979-07-27 03:54:19.180 ,7,0,0.,24.0,0.,24.0
1979-07-27 03:54:43.180 ,6,1,0.,24.0,0.,24.0
1979-07-27 03:55:07.180 ,0,0,0.,24.0,0.,24.0
1979-07-27 03:55:31.180 ,5,1,0.,24.0,0.,24.0
1979-07-27 03:55:55.180 ,5,0,0.,24.0,0.,24.0
1979-07-27 03:56:19.180 ,4,1,0.,24.0,0.,24.0
1979-07-27 03:56:43.180 ,4,0,0.,24.0,0.,24.0
1979-07-27 03:57:07.180 ,3,1,0.,24.0,0.,24.0
1979-07-27 03:57:31.180 ,3,0,0.,24.0,0.,24.0
1979-07-27 03:57:55.180 ,2,1,0.,24.0,0.,24.0
1979-07-27 03:58:19.180 ,2,0,0.,24.0,0.,24.0
1979-07-27 03:58:43.180 ,1,1,0.,24.0,0.,24.0
1979-07-27 03:59:07.180 ,1,0,0.,24.0,0.,24.0
1979-07-27 03:59:31.180 ,0,1,0.,24.0,0.,24.0
1979-07-27 03:59:55.180 ,0,0,0.,24.0,0.,24.0
1979-07-27 04:00:19.180 ,0,1,0.,24.0,0.,24.0
1979-07-27 04:00:43.180 ,0,0,0.,24.0,0.,24.0
1979-07-27 04:01:07.180 ,1,1,0.,24.0,0.,24.0
1979-07-27 04:01:31.180 ,1,0,0.,24.0,0.,24.0
1979-07-27 04:01:55.180 ,2,1,0.,24.0,0.,24.0
1979-07-27 04:02:19.180 ,2,0,0.,24.0,0.,24.0
1979-07-27 04:02:43.180 ,3,1,0.,24.0,0.,24.0
1979-07-27 04:03:07.180 ,3,0,0.,24.0,0.,24.0
1979-07-27 04:03:31.180 ,4,1,0.,24.0,0.,24.0
1979-07-27 04:03:55.180 ,4,0,0.,24.0,0.,24.0
1979-07-27 04:04:19.180 ,5,1,0.,24.0,0.,24.0
1979-07-27 04:04:43.180 ,5,0,0.,24.0,0.,24.0
1979-07-27 04:05:07.180 ,6,1,0.,24.0,0.,24.0
1979-07-27 04:05:31.180 ,6,0,0.,24.0,0.,24.0
1979-07-27 04:05:55.180 ,7,1,0.,24.0,0.,24.0
1979-07-27 04:06:19.180 ,7,0,0.,24.0,0.,24.0
1979-07-27 04:06:43.180 ,7,1,0.,24.0,0.,24.0
1979-07-27 04:07:07.180 ,7,0,0.,24.0,0.,24.0
1979-07-27 04:07:31.180 ,6,1,0.,24.0,0.,24.0
1979-07-27 04:07:55.180 ,6,0,0.,24.0,0.,24.0
1979-07-27 04:08:19.180 ,5,1,0.,24.0,0.,24.0
1979-07-27 04:08:43.180 ,5,0,0.,24.0,0.,24.0
1979-07-27 04:09:07.180 ,4,1,0.,24.0,0.,24.0
1979-07-27 04:09:31.180 ,4,0,0.,24.0,0.,24.0
1979-07-27 04:09:55.180 ,3,1,0.,24.0,0.,24.0
1979-07-27 04:10:19.180 ,3,0,0.,24.0,0.,24.0
1979-07-27 04:10:43.180 ,2,1,0.,24.0,0.,24.0
1979-07-27 04:11:07.180 ,2,0,0.,24.0,0.,24.0
1979-07-27 04:11:31.180 ,1,1,0.,24.0,0.,24.0
1979-07-27 04:11:55.180 ,1,0,0.,24.0,0.,24.0
1979-07-27 04:12:19.180 ,0,1,0.,24.0,0.,24.0
1979-07-27 04:12:43.180 ,0,0,0.,24.0,0.,24.0
1979-07-27 04:13:07.180 ,0,1,0.,24.0,0.,24.0
1979-07-27 04:13:31.180 ,0,0,0.,24.0,0.,24.0
1979-07-27 04:13:55.180 ,1,1,0.,24.0,0.,24.0
1979-07-27 04:14:19.180 ,1,0,0.,24.0,0.,24.0
1979-07-27 04:14:43.180 ,2,1,0.,24.0,0.,24.0
1979-07-27 04:15:07.180 ,2,0,0.,24.0,0.,24.0
1979-07-27 04:15:31.180 ,3,1,0.,24.0,0.,24.0
1979-07-27 04:15:55.180 ,3,0,0.,24.0,0.,24.0
1979-07-27 04:16:19.180 ,4,1,0.,24.0,0.,24.0
1979-07-27 04:16:43.180 ,4,0,0.,24.0,0.,24.0
1979-07-27 04:17:07.180 ,5,1,0.,24.0,0.,24.0
1979-07-27 04:17:31.180 ,5,0,0.,24.0,0.,24.0
1979-07-27 04:17:55.180 ,6,1,0.,24.0,0.,24.0
1979-07-27 04:18:19.180 ,6,0,0.,24.0,0.,24.0
1979-07-27 04:18:43.180 ,7,0,0.,24.0,0.,24.0
1979-07-27 04:19:07.180 ,7,0,0.,24.0,0.,24.0
1979-07-27 04:19:31.180 ,3,1,0.,24.0,0.,24.0
1979-07-27 04:19:55.180 ,0,1,0.,24.0,0.,24.0
1979-07-27 04:20:19.180 ,4,1,0.,24.0,0.,24.0
1979-07-27 04:20:43.180 ,7,1,0.,24.0,0.,24.0
1979-07-27 04:21:07.180 ,3,1,0.,24.0,0.,24.0
1979-07-27 04:21:31.180 ,0,1,0.,24.0,0.,24.0
1979-07-27 04:21:55.180 ,4,1,0.,24.0,0.,24.0
1979-07-27 04:22:19.180 ,7,1,0.,24.0,0.,24.0
1979-07-27 04:22:43.180 ,3,1,0.,24.0,0.,24.0
1979-07-27 04:23:07.180 ,0,1,0.,24.0,0.,24.0
1979-07-27 04:23:31.180 ,4,1,0.,24.0,0.,24.0
1979-07-27 04:23:55.180 ,7,1,0.,24.0,0.,24.0
1979-07-27 04:24:19.180 ,3,1,0.,24.0,0.,24.0
1979-07-27 04:24:43.180 ,0,1,0.,24.0,0.,24.0
1979-07-27 04:25:07.180 ,4,1,0.,24.0,0.,24.0
1979-07-27 04:25:31.180 ,7,1,0.,24.0,0.,24.0
1979-07-27 04:25:55.180 ,3,1,0.,24.0,0.,24.0
1979-07-27 04:26:19.180 ,0,1,0.,24.0,0.,24.0
1979-07-27 04:26:43.180 ,4,1,0.,24.0,0.,24.0
1979-07-27 04:27:07.180 ,7,1,0.,24.0,0.,24.0
1979-07-27 04:27:31.180 ,3,1,0.,24.0,0.,24.0
1979-07-27 04:27:55.180 ,0,1,0.,24.0,0.,24.0
1979-07-27 04:28:19.180 ,4,1,0.,24.0,0.,24.0
1979-07-27 04:28:43.180 ,7,1,0.,24.0,0.,24.0
1979-07-27 04:29:07.180 ,3,1,0.,24.0,0.,24.0
1979-07-27 04:29:31.180 ,0,1,0.,24.0,0.,24.0
1979-07-27 04:29:55.180 ,0,0,0.,24.0,0.,24.0
1979-07-27 04:30:19.180 ,0,0,0.,24.0,0.,24.0
1979-07-27 04:30:43.180 ,5,1,0.,24.0,0.,24.0
1979-07-27 04:31:07.180 ,5,0,0.,24.0,0.,24.0
1979-07-27 04:31:31.180 ,4,1,0.,24.0,0.,24.0
1979-07-27 04:31:55.180 ,4,0,0.,24.0,0.,24.0
1979-07-27 04:32:19.180 ,3,1,0.,24.0,0.,24.0
1979-07-27 04:32:43.180 ,3,0,0.,24.0,0.,24.0
1979-07-27 04:33:07.180 ,2,1,0.,24.0,0.,24.0
1979-07-27 04:33:31.180 ,2,0,0.,24.0,0.,24.0
1979-07-27 04:33:55.180 ,1,1,0.,24.0,0.,24.0
1979-07-27 04:34:19.180 ,1,0,0.,24.0,0.,24.0
1979-07-27 04:34:43.180 ,0,1,0.,24.0,0.,24.0
1979-07-27 04:35:07.180 ,0,0,0.,24.0,0.,24.0
1979-07-27 04:35:31.180 ,0,1,0.,24.0,0.,24.0
1979-07-27 04:35:55.180 ,0,0,0.,24.0,0.,24.0
1979-07-27 04:36:19.180 ,1,1,0.,24.0,0.,24.0
1979-07-27 04:36:43.180 ,1,0,0.,24.0,0.,24.0
1979-07-27 04:37:07.180 ,2,1,0.,24.0,0.,24.0
1979-07-27 04:37:31.180 ,2,0,0.,24.0,0.,24.0
1979-07-27 04:37:55.180 ,3,1,0.,24.0,0.,24.0
1979-07-27 04:38:19.180 ,3,0,0.,24.0,0.,24.0
1979-07-27 04:38:43.180 ,4,1,0.,24.0,0.,24.0
1979-07-27 04:39:07.180 ,4,0,0.,24.0,0.,24.0
1979-07-27 04:39:31.180 ,5,1,0.,24.0,0.,24.0
1979-07-27 04:39:55.180 ,5,0,0.,24.0,0.,24.0
1979-07-27 04:40:19.180 ,6,1,0.,24.0,0.,24.0
1979-07-27 04:40:43.180 ,6,0,0.,24.0,0.,24.0
1979-07-27 04:41:07.180 ,7,1,0.,24.0,0.,24.0
1979-07-27 04:41:31.180 ,7,0,0.,24.0,0.,24.0
1979-07-27 04:41:55.180 ,7,1,0.,24.0,0.,24.0
1979-07-27 04:42:19.180 ,7,0,0.,24.0,0.,24.0
1979-07-27 04:42:43.180 ,6,1,0.,24.0,0.,24.0
1979-07-27 04:43:07.180 ,6,0,0.,24.0,0.,24.0
1979-07-27 04:43:31.180 ,5,1,0.,24.0,0.,24.0
1979-07-27 04:43:55.180 ,5,0,0.,24.0,0.,24.0
1979-07-27 04:44:19.180 ,4,1,0.,24.0,0.,24.0
1979-07-27 04:44:43.180 ,4,0,0.,24.0,0.,24.0
1979-07-27 04:45:07.180 ,3,1,0.,24.0,0.,24.0
1979-07-27 04:45:31.180 ,3,0,0.,24.0,0.,24.0
1979-07-27 04:45:55.180 ,2,1,0.,24.0,0.,24.0
1979-07-27 04:46:19.180 ,2,0,0.,24.0,0.,24.0
1979-07-27 04:46:43.180 ,1,1,0.,24.0,0.,24.0
1979-07-27 04:47:07.180 ,1,0,0.,24.0,0.,24.0
1979-07-27 04:47:31.180 ,0,1,0.,24.0,0.,24.0
1979-07-27 04:47:55.180 ,0,0,0.,24.0,0.,24.0
1979-07-27 04:48:19.180 ,0,1,0.,24.0,0.,24.0
1979-07-27 04:48:43.180 ,0,0,0.,24.0,0.,24.0
1979-07-27 04:49:07.180 ,1,1,0.,24.0,0.,24.0
1979-07-27 04:49:31.180 ,1,0,0.,24.0,0.,24.0
1979-07-27 04:49:55.180 ,2,1,0.,24.0,0.,24.0
1979-07-27 04:50:19.180 ,2,0,0.,24.0,0.,24.0
1979-07-27 04:50:43.180 ,3,1,0.,24.0,0.,24.0
1979-07-27 04:51:07.180 ,3,0,0.,24.0,0.,24.0
1979-07-27 04:51:31.180 ,4,1,0.,24.0,0.,24.0
1979-07-27 04:51:55.180 ,4,0,0.,24.0,0.,24.0
1979-07-27 04:52:19.180 ,5,1,0.,24.0,0.,24.0
1979-07-27 04:52:43.180 ,5,0,0.,24.0,0.,24.0
1979-07-27 04:53:07.180 ,6,1,0.,24.0,0.,24.0
1979-07-27 04:53:31.180 ,6,0,0.,24.0,0.,24.0
1979-07-27 04:53:55.180 ,7,1,0.,24.0,0.,24.0
1979-07-27 04:54:19.180 ,7,0,0.,24.0,0.,24.0
1979-07-27 04:54:43.180 ,7,1,0.,24.0,0.,24.0
1979-07-27 04:55:07.180 ,7,0,0.,24.0,0.,24.0
1979-07-27 04:55:31.180 ,6,1,0.,24.0,0.,24.0
1979-07-27 04:55:55.180 ,6,0,0.,24.0,0.,24.0
1979-07-27 04:56:19.180 ,5,1,0.,24.0,0.,24.0
1979-07-27 04:56:43.180 ,5,0,0.,24.0,0.,24.0
1979-07-27 04:57:07.180 ,4,1,0.,24.0,0.,24.0
1979-07-27 04:57:31.180 ,4,0,0.,24.0,0.,24.0
1979-07-27 04:57:55.180 ,3,1,0.,24.0,0.,24.0
1979-07-27 04:58:19.180 ,3,0,0.,24.0,0.,24.0
1979-07-27 04:58:43.180 ,2,1,0.,24.0,0.,24.0
1979-07-27 04:59:07.180 ,2,0,0.,24.0,0.,24.0
1979-07-27 04:59:31.180 ,1,1,0.,24.0,0.,24.0
1979-07-27 04:59:55.180 ,1,0,0.,24.0,0.,24.0
1979-07-27 05:00:19.180 ,0,1,0.,24.0,0.,24.0
1979-07-27 05:00:43.180 ,0,0,0.,24.0,0.,24.0
1979-07-27 05:01:07.180 ,0,1,0.,24.0,0.,24.0
1979-07-27 05:01:31.180 ,0,0,0.,24.0,0.,24.0
1979-07-27 05:01:55.180 ,1,1,0.,24.0,0.,24.0
1979-07-27 05:02:19.180 ,1,0,0.,24.0,0.,24.0
1979-07-27 05:02:43.180 ,2,1,0.,24.0,0.,24.0
1979-07-27 05:03:07.180 ,2,0,0.,24.0,0.,24.0
1979-07-27 05:03:31.180 ,3,1,0.,24.0,0.,24.0
1979-07-27 05:03:55.180 ,3,0,0.,24.0,0.,24.0
1979-07-27 05:04:19.180 ,4,1,0.,24.0,0.,24.0
1979-07-27 05:04:43.180 ,4,0,0.,24.0,0.,24.0
1979-07-27 05:05:07.180 ,5,1,0.,24.0,0.,24.0
1979-07-27 05:05:31.180 ,5,0,0.,24.0,0.,24.0
1979-07-27 05:05:55.180 ,6,1,0.,24.0,0.,24.0
1979-07-27 05:06:19.180 ,6,0,0.,24.0,0.,24.0
1979-07-27 05:06:43.180 ,7,0,0.,24.0,0.,24.0
1979-07-27 05:07:07.180 ,7,0,0.,24.0,0.,24.0
1979-07-27 05:07:31.180 ,3,1,0.,24.0,0.,24.0
1979-07-27 05:07:55.180 ,0,1,0.,24.0,0.,24.0
1979-07-27 05:08:19.180 ,4,1,0.,24.0,0.,24.0
1979-07-27 05:08:43.180 ,7,1,0.,24.0,0.,24.0
1979-07-27 05:09:07.180 ,3,1,0.,24.0,0.,24.0
1979-07-27 05:09:31.180 ,0,1,0.,24.0,0.,24.0
1979-07-27 05:09:55.180 ,4,1,0.,24.0,0.,24.0
1979-07-27 05:10:19.180 ,7,1,0.,24.0,0.,24.0
1979-07-27 05:10:43.180 ,3,1,0.,24.0,0.,24.0
1979-07-27 05:11:07.180 ,0,1,0.,24.0,0.,24.0
1979-07-27 05:11:31.180 ,4,1,0.,24.0,0.,24.0
1979-07-27 05:11:55.180 ,7,1,0.,24.0,0.,24.0
1979-07-27 05:12:19.180 ,3,1,0.,24.0,0.,24.0
1979-07-27 05:12:43.180 ,0,1,0.,24.0,0.,24.0
1979-07-27 05:13:07.180 ,4,1,0.,24.0,0.,24.0
1979-07-27 05:13:31.180 ,7,1,0.,24.0,0.,24.0
1979-07-27 05:13:55.180 ,3,1,0.,24.0,0.,24.0
1979-07-27 05:14:19.180 ,0,1,0.,24.0,0.,24.0
1979-07-27 05:14:43.180 ,4,1,0.,24.0,0.,24.0
1979-07-27 05:15:07.180 ,7,1,0.,24.0,0.,24.0
1979-07-27 05:15:31.180 ,3,1,0.,24.0,0.,24.0
1979-07-27 05:15:55.180 ,0,1,0.,24.0,0.,24.0
1979-07-27 05:16:19.180 ,4,1,0.,24.0,0.,24.0
1979-07-27 05:16:43.180 ,7,1,0.,24.0,0.,24.0
1979-07-27 05:17:07.180 ,3,1,0.,24.0,0.,24.0
1979-07-27 05:17:31.180 ,0,1,0.,24.0,0.,24.0
1979-07-27 05:17:55.180 ,0,0,0.,24.0,0.,24.0
1979-07-27 05:18:19.180 ,0,0,0.,24.0,0.,24.0
1979-07-27 05:18:43.180 ,5,1,0.,24.0,0.,24.0
1979-07-27 05:19:07.180 ,5,0,0.,24.0,0.,24.0
1979-07-27 05:19:31.180 ,4,1,0.,24.0,0.,24.0
1979-07-27 05:19:55.180 ,4,0,0.,24.0,0.,24.0
1979-07-27 05:20:19.180 ,3,1,0.,24.0,0.,24.0
1979-07-27 05:20:43.180 ,3,0,0.,24.0,0.,24.0
1979-07-27 05:21:07.180 ,2,1,0.,24.0,0.,24.0
1979-07-27 05:21:31.180 ,2,0,0.,24.0,0.,24.0
1979-07-27 05:21:55.180 ,1,1,0.,24.0,0.,24.0
1979-07-27 05:22:19.180 ,1,0,0.,24.0,0.,24.0
1979-07-27 05:22:43.180 ,0,1,0.,24.0,0.,24.0
1979-07-27 05:23:07.180 ,0,0,0.,24.0,0.,24.0
1979-07-27 05:23:31.180 ,0,1,0.,24.0,0.,24.0
1979-07-27 05:23:55.180 ,0,0,0.,24.0,0.,24.0
1979-07-27 05:24:19.180 ,1,1,0.,24.0,0.,24.0
1979-07-27 05:24:43.180 ,1,0,0.,24.0,0.,24.0
1979-07-27 05:25:07.180 ,2,1,0.,24.0,0.,24.0
1979-07-27 05:25:31.180 ,2,0,0.,24.0,0.,24.0
1979-07-27 05:25:55.180 ,3,1,0.,24.0,0.,24.0
1979-07-27 05:26:19.180 ,3,0,0.,24.0,0.,24.0
1979-07-27 05:26:43.180 ,4,1,0.,24.0,0.,24.0
1979-07-27 05:27:07.180 ,4,0,0.,24.0,0.,24.0
1979-07-27 05:27:31.180 ,5,1,0.,24.0,0.,24.0
1979-07-27 05:27:55.180 ,5,0,0.,24.0,0.,24.0
1979-07-27 05:28:19.180 ,6,1,0.,24.0,0.,24.0
1979-07-27 05:28:43.180 ,6,0,0.,24.0,0.,24.0
1979-07-27 05:29:07.180 ,7,1,0.,24.0,0.,24.0
1979-07-27 05:29:31.180 ,7,0,0.,24.0,0.,24.0
1979-07-27 05:29:55.180 ,7,1,0.,24.0,0.,24.0
1979-07-27 05:30:19.180 ,7,0,0.,24.0,0.,24.0
1979-07-27 05:30:43.180 ,6,1,0.,24.0,0.,24.0
1979-07-27 05:31:07.180 ,6,0,0.,24.0,0.,24.0
1979-07-27 05:31:31.180 ,5,1,0.,24.0,0.,24.0
1979-07-27 05:31:55.180 ,5,0,0.,24.0,0.,24.0
1979-07-27 05:32:19.180 ,4,1,0.,24.0,0.,24.0
1979-07-27 05:32:43.180 ,4,0,0.,24.0,0.,24.0
1979-07-27 05:33:07.180 ,3,1,0.,24.0,0.,24.0
1979-07-27 05:33:31.180 ,3,0,0.,24.0,0.,24.0
1979-07-27 05:33:55.180 ,2,1,0.,24.0,0.,24.0
1979-07-27 05:34:19.180 ,2,0,0.,24.0,0.,24.0
1979-07-27 05:34:43.180 ,1,1,0.,24.0,0.,24.0
1979-07-27 05:35:07.180 ,1,0,0.,24.0,0.,24.0
1979-07-27 05:35:31.180 ,0,1,0.,24.0,0.,24.0
1979-07-27 05:35:55.180 ,0,0,0.,24.0,0.,24.0
1979-07-27 05:36:19.180 ,0,1,0.,24.0,0.,24.0
1979-07-27 05:36:43.180 ,0,0,0.,24.0,0.,24.0
1979-07-27 05:37:07.180 ,1,1,0.,24.0,0.,24.0
1979-07-27 05:37:31.180 ,1,0,0.,24.0,0.,24.0
1979-07-27 05:37:55.180 ,2,1,0.,24.0,0.,24.0
1979-07-27 05:38:19.180 ,2,0,0.,24.0,0.,24.0
1979-07-27 05:38:43.180 ,3,1,0.,24.0,0.,24.0
1979-07-27 05:39:07.180 ,3,0,0.,24.0,0.,24.0
1979-07-27 05:39:31.180 ,4,1,0.,24.0,0.,24.0
1979-07-27 05:39:55.180 ,4,0,0.,24.0,0.,24.0
1979-07-27 05:40:19.180 ,5,1,0.,24.0,0.,24.0
1979-07-27 05:40:43.180 ,5,0,0.,24.0,0.,24.0
1979-07-27 05:41:07.180 ,6,1,0.,24.0,0.,24.0
1979-07-27 05:41:31.180 ,6,0,0.,24.0,0.,24.0
1979-07-27 05:41:55.180 ,7,1,0.,24.0,0.,24.0
1979-07-27 05:42:19.180 ,7,0,0.,24.0,0.,24.0
1979-07-27 05:42:43.180 ,7,1,0.,24.0,0.,24.0
1979-07-27 05:43:07.180 ,7,0,0.,24.0,0.,24.0
1979-07-27 05:43:31.180 ,6,1,0.,24.0,0.,24.0
1979-07-27 05:43:55.180 ,6,0,0.,24.0,0.,24.0
1979-07-27 05:44:19.180 ,5,1,0.,24.0,0.,24.0
1979-07-27 05:44:43.180 ,5,0,0.,24.0,0.,24.0
1979-07-27 05:45:07.180 ,4,1,0.,24.0,0.,24.0
1979-07-27 05:45:31.180 ,4,0,0.,24.0,0.,24.0
1979-07-27 05:45:55.180 ,3,1,0.,24.0,0.,24.0
1979-07-27 05:46:19.180 ,3,0,0.,24.0,0.,24.0
1979-07-27 05:46:43.180 ,2,1,0.,24.0,0.,24.0
1979-07-27 05:47:07.180 ,2,0,0.,24.0,0.,24.0
1979-07-27 05:47:31.180 ,1,1,0.,24.0,0.,24.0
1979-07-27 05:47:55.180 ,1,0,0.,24.0,0.,24.0
1979-07-27 05:48:19.180 ,0,1,0.,24.0,0.,24.0
1979-07-27 05:48:43.180 ,0,0,0.,24.0,0.,24.0
1979-07-27 05:49:07.180 ,0,1,0.,24.0,0.,24.0
1979-07-27 05:49:31.180 ,0,0,0.,24.0,0.,24.0
1979-07-27 05:49:55.180 ,1,1,0.,24.0,0.,24.0
1979-07-27 05:50:19.180 ,1,0,0.,24.0,0.,24.0
1979-07-27 05:50:43.180 ,2,1,0.,24.0,0.,24.0
1979-07-27 05:51:07.180 ,2,0,0.,24.0,0.,24.0
1979-07-27 05:51:31.180 ,3,1,0.,24.0,0.,24.0
1979-07-27 05:51:55.180 ,3,0,0.,24.0,0.,24.0
1979-07-27 05:52:19.180 ,4,1,0.,24.0,0.,24.0
1979-07-27 05:52:43.180 ,4,0,0.,24.0,0.,24.0
1979-07-27 05:53:07.180 ,5,1,0.,24.0,0.,24.0
1979-07-27 05:53:31.180 ,5,0,0.,24.0,0.,24.0
1979-07-27 05:53:55.180 ,6,1,0.,24.0,0.,24.0
1979-07-27 05:54:19.180 ,6,0,0.,24.0,0.,24.0
1979-07-27 05:54:43.180 ,7,0,0.,24.0,0.,24.0
1979-07-27 05:55:07.180 ,7,0,0.,24.0,0.,24.0
1979-07-27 05:55:31.180 ,3,1,0.,24.0,0.,24.0
1979-07-27 05:55:55.180 ,0,1,0.,24.0,0.,24.0
1979-07-27 05:56:19.180 ,4,1,0.,24.0,0.,24.0
1979-07-27 05:56:43.180 ,7,1,0.,24.0,0.,24.0
1979-07-27 05:57:07.180 ,3,1,0.,24.0,0.,24.0
1979-07-27 05:57:31.180 ,0,1,0.,24.0,0.,24.0
1979-07-27 05:57:55.180 ,4,1,0.,24.0,0.,24.0
1979-07-27 05:58:19.180 ,7,1,0.,24.0,0.,24.0
1979-07-27 05:58:43.180 ,3,1,0.,24.0,0.,24.0
1979-07-27 05:59:07.180 ,0,1,0.,24.0,0.,24.0
1979-07-27 05:59:31.180 ,4,1,0.,24.0,0.,24.0
1979-07-27 05:59:55.180 ,7,1,0.,24.0,0.,24.0
1979-07-27 06:00:19.180 ,3,1,0.,24.0,0.,24.0
